Overview Statistics Trail Chart Weather Telemetry Raw packets
 

This is the latest recevied weather packets stored in our database for station/object SV9TNF-56. If no packets are shown the sender has not sent any weather packets the latest 10 day(s).

<< 60 61 62 63 64 65 66 >>
Time Temp. Humidity Pressure Rain* Wind** Luminosity Snow
1788250392 25.56° C 59% 1011.2 hPa 0 mm 14.31 m/s, 136° - -
1788250092 25.56° C 57% 1010.8 hPa 0 mm 12.52 m/s, 132° - -
1788249791 25.56° C 57% 1011.2 hPa 0 mm 5.81 m/s, 249° - -
1788249491 25.56° C 57% 1011.2 hPa 0 mm 14.31 m/s, 192° - -
1788249191 25.56° C 57% 1011.2 hPa 0 mm 12.07 m/s, 232° - -
1788248891 25.56° C 57% 1011.2 hPa 0 mm 8.49 m/s, 172° - -
1788248591 25.56° C 58% 1011.2 hPa 0 mm 23.69 m/s, 165° - -
1788248291 25.56° C 58% 1011.5 hPa 0 mm 25.93 m/s, 262° - -
1788247990 25.56° C 61% 1011.2 hPa 0 mm 25.93 m/s, 234° - -
1788247691 25.56° C 62% 1011.2 hPa 0 mm 12.07 m/s, 190° - -
1788247390 25° C 64% 1011.2 hPa 0 mm 16.54 m/s, 260° - -
1788247091 25° C 64% 1011.2 hPa 0 mm 12.07 m/s, 143° - -
1788246790 25° C 64% 1010.8 hPa 0 mm 20.56 m/s, 213° - -
1788246490 25° C 67% 1010.8 hPa 0 mm 21.46 m/s, 252° - -
1788246190 25° C 69% 1011.2 hPa 0 mm 8.94 m/s, 192° - -
1788245890 25° C 69% 1010.8 hPa 0 mm 14.75 m/s, 180° - -
1788245590 25° C 69% 1010.8 hPa 0 mm 8.49 m/s, 172° - -
1788245290 25° C 68% 1010.8 hPa 0 mm 22.35 m/s, 222° - -
1788244990 25° C 68% 1011.2 hPa 0 mm 19.67 m/s, 120° - -
1788244690 25° C 70% 1011.2 hPa 0 mm 12.96 m/s, 201° - -
1788244390 25° C 70% 1010.8 hPa 0 mm 2.68 m/s, 285° - -
1788244090 25° C 71% 1010.8 hPa 0 mm 16.54 m/s, 96° - -
1788243789 25° C 70% 1010.8 hPa 0 mm 16.09 m/s, 144° - -
1788243489 25° C 70% 1010.8 hPa 0 mm 12.07 m/s, 127° - -
1788243189 25° C 69% 1010.8 hPa 0 mm 18.33 m/s, 222° - -

* Rain latest hour (hover to see other rain measurements)
** Current wind speed in m/s (hover to see current wind gust speed)